• In Czech Republic
  • List of Countries
  • For 7 days
  • Water Temperature
  • Satellite Maps
  • Weather Map
  • Weather Widgets
  • user-avatar
    Login

    Hourly Weather Edmonton

    Today, 24 October, Tuesday

    Time Temperature Precipitation Wind Pressure Humidity
    00:00 +6°C° 0.2 mm 4 mps 707 mmHg 59%
    01:00 +6°C° 0.2 mm 5 mps 707 mmHg 60%
    02:00 +7°C° 0 mm 5 mps 706 mmHg 59%
    03:00 +7°C° 0 mm 5 mps 706 mmHg 57%
    04:00 +8°C° 0 mm 5 mps 706 mmHg 55%
    05:00 +8°C° 0 mm 5 mps 706 mmHg 55%
    06:00 +9°C° 0 mm 5 mps 706 mmHg 55%
    07:00 +9°C° 0 mm 5 mps 706 mmHg 56%
    08:00 +11°C° 0 mm 6 mps 706 mmHg 54%
    09:00 +12°C° 0 mm 7 mps 706 mmHg 53%
    10:00 +14°C° 0 mm 7 mps 706 mmHg 52%
    11:00 +14°C° 0 mm 7 mps 705 mmHg 53%
    12:00 +14°C° 0 mm 6 mps 705 mmHg 53%
    13:00 +14°C° 0 mm 6 mps 705 mmHg 54%
    14:00 +12°C° 0 mm 5 mps 705 mmHg 57%
    15:00 +11°C° 0 mm 4 mps 704 mmHg 61%
    16:00 +10°C° 0 mm 3 mps 704 mmHg 64%
    17:00 +9°C° 0 mm 3 mps 704 mmHg 65%
    18:00 +8°C° 0 mm 2 mps 703 mmHg 66%
    19:00 +7°C° 0 mm 2 mps 703 mmHg 67%
    20:00 +7°C° 0 mm 2 mps 702 mmHg 67%
    21:00 +6°C° 0 mm 2 mps 701 mmHg 67%
    22:00 +5°C° 0 mm 2 mps 701 mmHg 68%
    23:00 +4°C° 0 mm 3 mps 699 mmHg 68%

    Tomorrow, 25 October, Wednesday

    Time Temperature Precipitation Wind Pressure Humidity
    00:00 +4°C° 0 mm 4 mps 698 mmHg 68%
    01:00 +4°C° 0 mm 4 mps 696 mmHg 68%
    02:00 +4°C° 0 mm 4 mps 695 mmHg 71%
    03:00 +5°C° 0 mm 5 mps 693 mmHg 73%
    04:00 +5°C° 0 mm 5 mps 692 mmHg 76%
    05:00 +5°C° 0.1 mm 4 mps 691 mmHg 74%
    06:00 +6°C° 0.1 mm 4 mps 691 mmHg 72%
    07:00 +7°C° 0.1 mm 3 mps 690 mmHg 70%
    08:00 +7°C° 0.1 mm 6 mps 691 mmHg 68%
    09:00 +7°C° 0.1 mm 8 mps 692 mmHg 66%
    10:00 +8°C° 0.1 mm 11 mps 693 mmHg 63%
    11:00 +6°C° 0.2 mm 11 mps 696 mmHg 66%
    12:00 +3°C° 0.2 mm 11 mps 698 mmHg 69%
    13:00 +1°C° 0.2 mm 11 mps 700 mmHg 72%
    14:00 0°C° 0.1 mm 10 mps 702 mmHg 71%
    15:00 0°C° 0.1 mm 9 mps 704 mmHg 70%
    16:00 -1°C° 0.1 mm 9 mps 706 mmHg 69%
    17:00 -1°C° 0 mm 8 mps 708 mmHg 70%
    18:00 -1°C° 0 mm 7 mps 709 mmHg 71%
    19:00 -2°C° 0 mm 6 mps 710 mmHg 72%
    20:00 -1°C° 0 mm 5 mps 711 mmHg 76%
    21:00 -2°C° 0 mm 4 mps 711 mmHg 80%
    22:00 -2°C° 0 mm 3 mps 712 mmHg 84%
    23:00 -2°C° 0 mm 2 mps 712 mmHg 85%

    Day after tomorrow, 26 October, Thursday

    Time Temperature Precipitation Wind Pressure Humidity
    00:00 -1°C° 0 mm 1 mps 713 mmHg 87%
    01:00 -1°C° 0 mm 1 mps 713 mmHg 89%
    02:00 -1°C° 0 mm 1 mps 713 mmHg 88%
    03:00 -1°C° 0 mm 1 mps 713 mmHg 88%
    04:00 -3°C° 0 mm 2 mps 713 mmHg 87%
    05:00 -3°C° 0 mm 2 mps 712 mmHg 85%
    06:00 -4°C° 0 mm 3 mps 712 mmHg 82%
    07:00 -3°C° 0 mm 4 mps 712 mmHg 80%
    08:00 -2°C° 0 mm 4 mps 711 mmHg 73%
    09:00 -1°C° 0 mm 5 mps 711 mmHg 66%
    10:00 +1°C° 0 mm 5 mps 711 mmHg 59%
    11:00 +2°C° 0 mm 5 mps 710 mmHg 56%
    12:00 +3°C° 0 mm 5 mps 710 mmHg 53%
    13:00 +5°C° 0 mm 4 mps 709 mmHg 50%
    14:00 +4°C° 0 mm 4 mps 709 mmHg 55%
    15:00 +3°C° 0 mm 3 mps 709 mmHg 60%
    16:00 +3°C° 0 mm 2 mps 709 mmHg 65%
    17:00 +3°C° 0 mm 2 mps 709 mmHg 67%
    18:00 +2°C° 0 mm 2 mps 709 mmHg 69%
    19:00 +2°C° 0 mm 2 mps 709 mmHg 71%
    20:00 +2°C° 0 mm 2 mps 709 mmHg 71%
    21:00 +1°C° 0 mm 2 mps 709 mmHg 71%
    22:00 +1°C° 0 mm 2 mps 709 mmHg 71%
    23:00 +1°C° 0 mm 2 mps 709 mmHg 71%

    27 October, Friday

    Time Temperature Precipitation Wind Pressure Humidity
    00:00 +1°C° 0 mm 2 mps 709 mmHg 71%
    01:00 +1°C° 0 mm 2 mps 709 mmHg 71%
    02:00 +1°C° 0 mm 2 mps 708 mmHg 70%
    03:00 +1°C° 0 mm 2 mps 708 mmHg 69%
    04:00 +1°C° 0 mm 2 mps 708 mmHg 68%
    05:00 +1°C° 0 mm 2 mps 708 mmHg 67%
    06:00 +1°C° 0 mm 2 mps 707 mmHg 66%
    07:00 +1°C° 0 mm 3 mps 707 mmHg 65%
    08:00 +3°C° 0 mm 3 mps 707 mmHg 60%
    09:00 +5°C° 0 mm 3 mps 707 mmHg 56%
    10:00 +8°C° 0 mm 3 mps 707 mmHg 51%
    11:00 +9°C° 0 mm 3 mps 707 mmHg 51%
    12:00 +10°C° 0 mm 3 mps 706 mmHg 52%
    13:00 +11°C° 0 mm 3 mps 706 mmHg 52%
    14:00 +10°C° 0 mm 3 mps 706 mmHg 58%
    15:00 +10°C° 0 mm 3 mps 706 mmHg 65%
    16:00 +9°C° 0 mm 3 mps 706 mmHg 71%
    17:00 +8°C° 0 mm 3 mps 706 mmHg 74%
    18:00 +8°C° 0 mm 3 mps 706 mmHg 78%
    19:00 +7°C° 0 mm 3 mps 706 mmHg 81%
    20:00 +7°C° 0 mm 3 mps 706 mmHg 82%
    21:00 +7°C° 0 mm 3 mps 706 mmHg 83%
    22:00 +5°C° 0 mm 3 mps 706 mmHg 84%
    23:00 +5°C° 0 mm 3 mps 705 mmHg 84%

    28 October, Saturday

    Time Temperature Precipitation Wind Pressure Humidity
    00:00 +5°C° 0 mm 3 mps 705 mmHg 84%
    01:00 +5°C° 0 mm 3 mps 705 mmHg 84%
    02:00 +6°C° 0 mm 2 mps 704 mmHg 83%
    03:00 +6°C° 0 mm 2 mps 704 mmHg 83%
    04:00 +6°C° 0 mm 2 mps 704 mmHg 82%
    05:00 +5°C° 0 mm 3 mps 703 mmHg 80%
    06:00 +7°C° 0 mm 3 mps 703 mmHg 79%
    07:00 +7°C° 0 mm 3 mps 702 mmHg 77%
    08:00 +9°C° 0 mm 3 mps 702 mmHg 69%
    09:00 +11°C° 0 mm 3 mps 702 mmHg 61%
    10:00 +13°C° 0 mm 3 mps 701 mmHg 54%
    11:00 +14°C° 0 mm 3 mps 701 mmHg 52%
    12:00 +16°C° 0 mm 3 mps 700 mmHg 51%
    13:00 +17°C° 0 mm 3 mps 700 mmHg 49%
    14:00 +16°C° 0 mm 3 mps 700 mmHg 54%
    15:00 +13°C° 0 mm 3 mps 700 mmHg 59%
    16:00 +12°C° 0 mm 3 mps 699 mmHg 64%
    17:00 +11°C° 0 mm 3 mps 700 mmHg 64%
    18:00 +11°C° 0 mm 4 mps 700 mmHg 63%
    19:00 +10°C° 0 mm 4 mps 700 mmHg 63%
    20:00 +8°C° 0 mm 4 mps 701 mmHg 67%
    21:00 +8°C° 0 mm 4 mps 701 mmHg 70%
    22:00 +7°C° 0 mm 4 mps 702 mmHg 74%
    23:00 +6°C° 0 mm 4 mps 702 mmHg 78%

    29 October, Sunday

    Time Temperature Precipitation Wind Pressure Humidity
    00:00 +6°C° 0 mm 4 mps 703 mmHg 82%
    01:00 +5°C° 0 mm 4 mps 704 mmHg 85%
    02:00 +5°C° 0 mm 4 mps 705 mmHg 84%
    03:00 +5°C° 0 mm 5 mps 705 mmHg 83%
    04:00 +5°C° 0 mm 5 mps 706 mmHg 82%
    05:00 +4°C° 0.2 mm 6 mps 707 mmHg 79%
    06:00 +3°C° 0.2 mm 6 mps 708 mmHg 75%
    07:00 +3°C° 0.2 mm 6 mps 708 mmHg 72%
    08:00 +2°C° 0 mm 6 mps 709 mmHg 69%
    09:00 +2°C° 0 mm 7 mps 710 mmHg 67%
    10:00 0°C° 0 mm 7 mps 710 mmHg 64%
    11:00 0°C° 0 mm 8 mps 711 mmHg 63%
    12:00 0°C° 0 mm 8 mps 711 mmHg 62%
    13:00 0°C° 0 mm 8 mps 712 mmHg 61%
    14:00 -1°C° 0 mm 8 mps 712 mmHg 61%
    15:00 -1°C° 0 mm 7 mps 713 mmHg 61%
    16:00 -2°C° 0 mm 7 mps 713 mmHg 62%
    17:00 -2°C° 0 mm 7 mps 714 mmHg 62%
    18:00 -2°C° 0 mm 7 mps 714 mmHg 62%
    19:00 -2°C° 0 mm 6 mps 715 mmHg 62%
    20:00 -2°C° 0 mm 5 mps 715 mmHg 66%
    21:00 -4°C° 0 mm 5 mps 715 mmHg 70%
    22:00 -3°C° 0 mm 4 mps 715 mmHg 73%
    23:00 -3°C° 0 mm 4 mps 715 mmHg 74%

    30 October, Monday

    Time Temperature Precipitation Wind Pressure Humidity
    00:00 -3°C° 0 mm 4 mps 714 mmHg 75%
    01:00 -3°C° 0 mm 4 mps 714 mmHg 76%
    02:00 -2°C° 0 mm 3 mps 714 mmHg 78%
    03:00 -2°C° 0 mm 3 mps 713 mmHg 81%
    04:00 -3°C° 0 mm 2 mps 712 mmHg 83%
    05:00 -3°C° 0 mm 2 mps 712 mmHg 85%
    06:00 -3°C° 0 mm 2 mps 711 mmHg 86%
    07:00 -3°C° 0 mm 2 mps 710 mmHg 87%
    08:00 -1°C° 0 mm 3 mps 709 mmHg 78%
    09:00 0°C° 0 mm 3 mps 708 mmHg 69%
    10:00 0°C° 0 mm 4 mps 707 mmHg 61%
    11:00 +1°C° 0 mm 4 mps 705 mmHg 55%
    12:00 +2°C° 0 mm 5 mps 704 mmHg 50%
    13:00 +3°C° 0 mm 5 mps 702 mmHg 45%
    14:00 +3°C° 0 mm 5 mps 701 mmHg 46%
    15:00 +4°C° 0 mm 4 mps 699 mmHg 47%
    16:00 +3°C° 0 mm 4 mps 698 mmHg 47%
    17:00 +3°C° 0.1 mm 4 mps 697 mmHg 49%
    18:00 +4°C° 0.1 mm 4 mps 696 mmHg 50%
    19:00 +3°C° 0.1 mm 5 mps 695 mmHg 52%
    20:00 +3°C° 0.3 mm 5 mps 694 mmHg 56%
    21:00 +3°C° 0.3 mm 6 mps 693 mmHg 59%
    22:00 +3°C° 0.3 mm 7 mps 692 mmHg 63%
    23:00 +2°C° 0.1 mm 8 mps 692 mmHg 64%
    Show more